Boonton, New Jersey, United States (07005)
Lat: 40.90N, Lon: 74.41W
Wx Zone: NJZ008
Local Info
Past Weather Observations for Tuesday, September 30, 2014

NOTE: This archive is for the closest National Weather Service station to Boonton. Information may differ from the station used for current weather conditions.

Click here for Long-term Archive

Time Weather Temperature Dewpoint Humidity Pressure Winds Precip Visibility
23:53
Mostly Cloudy
63°F / 17°C 55°F / 13°C 77% 30.01 in
(1016 mb)
ENE 6.9 mph
(ENE 11 kph)
- 10SM
22:53
Overcast
63°F / 17°C 55°F / 13°C 77% 30.01 in
(1016 mb)
E 8.1 mph
(E 13 kph)
- 10SM
21:53
Overcast
63°F / 17°C 55°F / 13°C 77% 30.01 in
(1016 mb)
ENE 5.8 mph
(ENE 9 kph)
- 10SM
20:53
Partly Cloudy
63°F / 17°C 55°F / 13°C 77% 30.01 in
(1016 mb)
Calm - 10SM
19:53
Overcast
63°F / 17°C 55°F / 13°C 77% 29.98 in
(1015 mb)
E 4.6 mph
(E 7 kph)
- 10SM
17:53
Clear
64°F / 18°C 55°F / 13°C 73% 29.95 in
(1014 mb)
E 6.9 mph
(E 11 kph)
- 10SM
17:30
Partly Cloudy
66°F / 19°C 55°F / 13°C 68% 29.95 in
(1014 mb)
ESE 6.9 mph
(ESE 11 kph)
- 10SM
17:05
Mostly Cloudy
66°F / 19°C 57°F / 14°C 73% 29.95 in
(1014 mb)
E 8.1 mph
(E 13 kph)
- 10SM
16:53
Partly Cloudy
66°F / 19°C 57°F / 14°C 73% 29.95 in
(1014 mb)
Variable 6.9 mph
(Variable 11 kph)
- 10SM
15:53
Mostly Cloudy
70°F / 21°C 57°F / 14°C 64% 29.95 in
(1014 mb)
E 8.1 mph
(E 13 kph)
- 10SM
14:53
Partly Cloudy
70°F / 21°C 57°F / 14°C 64% 29.95 in
(1014 mb)
SE 9.2 mph
(SE 15 kph)
- 10SM
14:00
Partly Cloudy
70°F / 21°C 57°F / 14°C 64% 29.95 in
(1014 mb)
SE 11.5 mph
(SE 19 kph)
- 10SM
13:53
Mostly Cloudy
70°F / 21°C 57°F / 14°C 64% 29.95 in
(1014 mb)
E 10.4 mph
(E 17 kph)
- 10SM
13:48
Mostly Cloudy
70°F / 21°C 57°F / 14°C 64% 29.95 in
(1014 mb)
E 10.4 mph
(E 17 kph)
- 10SM
12:53
Overcast
70°F / 21°C 57°F / 14°C 64% 29.95 in
(1014 mb)
E 10.4 mph
(E 17 kph)
- 10SM
11:53
Overcast
68°F / 20°C 59°F / 15°C 73% 29.98 in
(1015 mb)
ESE 8.1 mph
(ESE 13 kph)
- 10SM
10:53
Overcast
70°F / 21°C 59°F / 15°C 69% 29.95 in
(1014 mb)
E 8.1 mph
(E 13 kph)
- 10SM
09:53
Overcast
70°F / 21°C 61°F / 16°C 73% 29.98 in
(1015 mb)
E 6.9 mph
(E 11 kph)
- 8SM
08:53
Partly Cloudy
70°F / 21°C 55°F / 13°C 60% 29.98 in
(1015 mb)
SSE 4.6 mph
(SSE 7 kph)
- 10SM
07:53
Clear
66°F / 19°C 59°F / 15°C 78% 29.98 in
(1015 mb)
Calm - 8SM
06:53
Overcast
63°F / 17°C 57°F / 14°C 83% 29.98 in
(1015 mb)
Calm - 9SM
05:53
Overcast
63°F / 17°C 57°F / 14°C 83% 29.95 in
(1014 mb)
Calm - 9SM
04:53
Overcast
63°F / 17°C 57°F / 14°C 83% 29.95 in
(1014 mb)
Calm - 9SM
03:53
Mostly Cloudy
63°F / 17°C 57°F / 14°C 83% 29.95 in
(1014 mb)
Calm - 10SM
02:53
Clear
63°F / 17°C 57°F / 14°C 83% 29.95 in
(1014 mb)
Calm - 10SM
01:53
Overcast
64°F / 18°C 57°F / 14°C 78% 29.95 in
(1014 mb)
Calm - 10SM
00:53
Mostly Cloudy
66°F / 19°C 57°F / 14°C 73% 29.95 in
(1014 mb)
Calm - 10SM
Time Weather Temperature Dewpoint Humidity Pressure Winds Precip Visibility


Weather for websites

WeatherForYou.com, LLC is not responsible for any damages or problems caused by this service. Current weather conditions are obtained from the closest station including government and personal stations which may have varying degrees of accuracy. Weather forecasts are derived from the NOAA NDFD. Like all things, this site belongs to Jesus Christ... He just trusts me to maintain it. If you have any questions or comments email webmaster@weatherforyou.com

Copyright © 2014, WeatherForYou.com LLC. All rights reserved.